Weather History for Western Head, NS

Change the Weather History Date:

Sunday, October 21, 2012

  Actual Average Record
Temperature  
Mean Temperature 57 °F -  
Max Temperature 66 °F - - ()
Min Temperature 48 °F - - ()
Degree Days  
Heating Degree Days 8    
Growing Degree Days 7 (Base 50)    
Moisture  
Dew Point 52 °F    
Average Humidity 90    
Maximum Humidity 100    
Minimum Humidity 52    
Precipitation  
Precipitation 0.38 in - - ()
Sea Level Pressure  
Sea Level Pressure 29.72 in    
Wind  
Wind Speed 9 mph ()    
Max Wind Speed 16 mph    
Max Gust Speed -    
T = Trace of Precipitation, MM = Missing Value Source: Averaged Metar Reports

Daily Weather History Graph

Daily Weather History Graph

Search for Another Location

Airport:

Trip Planner

Search our weather history database for the weather conditions in past years. The results will help you decide how hot, cold, wet, or windy it might be!

Date:

Astronomy

Oct. 21, 2012 Rise Set
Actual Time 7:41 AM ADT 6:24 PM ADT
Civil Twilight 7:11 AM ADT 6:53 PM ADT
Nautical Twilight 6:38 AM ADT 7:27 PM ADT
Astronomical Twilight 6:04 AM ADT 8:00 PM ADT
Moon 2:03 PM ADT (10/21) No Moon Set
Length of Visible Light 11h 41m
Length of Day
10h 43m
Waxing Crescent, 44% of the Moon is Illuminated
Oct 21
Waxing Crescent
Oct 22
First Quarter
Oct 29
Full
Nov 6
Last Quarter
Nov 13
New

Hourly Weather History & Observations

Time (ADT) Temp. Dew Point Humidity Pressure Visibility Wind Dir Wind Speed Gust Speed Precip Events Conditions
12:00 AM 56 °F 56 °F 100% 29.76 in - South 13.8 mph - -  
12:00 AM 56.1 °F 55.9 °F 99% 29.76 in - South 13.8 mph - N/A   Unknown
1:00 AM 57.6 °F 57.4 °F 99% 29.74 in - South 16.1 mph - 0.29 in   Unknown
2:00 AM 57.2 °F 57.0 °F 99% 29.73 in - South 16.1 mph - 0.05 in   Unknown
3:00 AM 55 °F 55 °F 99% 29.73 in - SSW 6.9 mph - -  
3:00 AM 55.0 °F 54.9 °F 99% 29.73 in - SSW 6.9 mph - 0.04 in   Unknown
4:00 AM 56.1 °F 56.1 °F 100% 29.71 in - WSW 6.9 mph - N/A   Unknown
5:00 AM 55.2 °F 55.2 °F 100% 29.70 in - WSW 4.6 mph - N/A   Unknown
6:00 AM 54 °F 54 °F 98% 29.71 in - SW 3.5 mph - -  
6:00 AM 53.6 °F 53.6 °F 100% 29.71 in - SW 3.5 mph - N/A   Unknown
7:00 AM 52.5 °F 52.5 °F 100% 29.72 in - SW 4.6 mph - N/A   Unknown
8:00 AM 52.7 °F 52.7 °F 100% 29.73 in - SSW 8.1 mph - N/A   Unknown
9:00 AM 53 °F 53 °F 100% 29.73 in - SSW 9.2 mph - -  
9:00 AM 53.1 °F 53.1 °F 100% 29.73 in - SSW 9.2 mph - N/A   Unknown
10:00 AM 54.7 °F 54.7 °F 100% 29.73 in - WSW 5.8 mph - N/A   Unknown
11:00 AM 54.9 °F 54.7 °F 99% 29.72 in - SSW 6.9 mph - N/A   Unknown
12:00 PM 55 °F 54 °F 96% 29.73 in - SSW 9.2 mph - -  
12:00 PM 54.7 °F 54.1 °F 98% 29.73 in - SSW 9.2 mph - N/A   Unknown
1:00 PM 57.2 °F 55.2 °F 93% 29.72 in - SSW 9.2 mph - N/A   Unknown
2:00 PM 56.8 °F 52.2 °F 84% 29.69 in - SSW 4.6 mph - N/A   Unknown
3:00 PM 65 °F 51 °F 52% 29.69 in - WSW 9.2 mph - -  
3:00 PM 65.3 °F 51.4 °F 61% 29.69 in - WSW 9.2 mph - N/A   Unknown
4:00 PM 63.0 °F 50.7 °F 64% 29.68 in - West 10.4 mph - N/A   Unknown
6:00 PM 59 °F 48 °F 59% 29.70 in - West 10.4 mph - -  
6:00 PM 59.0 °F 48.4 °F 68% 29.70 in - West 10.4 mph - N/A   Unknown
7:00 PM 53.4 °F 48.0 °F 82% 29.72 in - West 6.9 mph - N/A   Unknown
8:00 PM 50.7 °F 45.1 °F 81% 29.73 in - West 6.9 mph - N/A   Unknown
9:00 PM 50 °F 47 °F 85% 29.73 in - WSW 10.4 mph - -  
9:00 PM 49.8 °F 46.8 °F 89% 29.73 in - WSW 10.4 mph - N/A   Unknown
10:00 PM 48.6 °F 46.0 °F 91% 29.74 in - WSW 9.2 mph - N/A   Unknown
11:00 PM 48.0 °F 46.2 °F 93% 29.73 in - WSW 8.1 mph - N/A   Unknown